Location: Olmeneta
(45.2333°N, 10.0167°E)
Time: 17:25:01
(UTC+00:00)

Meteor 2-20 Rocket - Pass Details

Date: 03 March 2021
Orbit: 941 x 959 km, 82.5° (Epoch: 11 April)

Event Time Altitude Azimuth Distance (km) Brightness Sun altitude
Rises 19:41:18 0° 353° (N) 3,621 7.8 -27.1°
Reaches altitude 10° 19:43:50 10° 355° (N) 2,674 7.1 -27.5°
Enters shadow 19:49:10 62° 37° (NE) 1,059 4.5 -28.4°
